Terug naar catalogus

PICO-01A003

ActiefCommunicatieSSO
NORAD 58326·PAYLOAD·🇮🇹 Italy

Gelanceerd Nov 11, 2023 vanaf Vandenberg Space Force Base

Loading…

Volgende Passages (komende 24 uur)

TLE

VersSource: Space-Track

Epoch: Sep 14, 2026, 22:20 UTC

1 58326U 23174BY  26257.93095794  .00023794  00000-0  43214-3 0  9991
2 58326  97.3746 345.0824 0005279 179.0155 181.1108 15.49551652159298

Volg PICO-01A003 in realtime met AllMySat

Download on the App Store